Terminal Aerodrome Forecast
Issued by NWS Shreveport, LA

Home | Current Version | Previous Version | Text Only | Print | Product List | Glossary On
Versions: 1 2 3 4 5 6 7 8 9 10 11 12 13 14 15 16 17 18 19 20
000
FTUS44 KSHV 260500
TAFGGG
TAF
KGGG 260520Z 2606/2706 16003KT P6SM SKC
     FM260900 19007KT 4SM BR SKC
     FM261500 22009KT P6SM FEW250
     FM270000 17006KT P6SM SKC=

USA.gov is the U.S. government's official web portal to all federal, state and local government web resources and services.